Regional Weather Roundup
Issued by NWS Jackson, KY

Home | Current Version | Previous Version | Text Only | Print | Product List | Glossary Off
Versions: 1 2 3 4 5 6 7 8 9 10 11 12 13 14 15 16 17 18 19 20 21 22 23 24 25 26 27

000
ASUS43 KJKL 050810
RWRJKL

EAST KENTUCKY HOURLY WEATHER ROUNDUP
NATIONAL WEATHER SERVICE JACKSON KY
400 AM EDT THU MAY 05 2016

NOTE: "FAIR" INDICATES FEW OR NO CLOUDS BELOW 12,000 FEET WITH
NO SIGNIFICANT WEATHER AND/OR OBSTRUCTIONS TO VISIBILITY.

* THESE REPORTS ARE NOT UNDER NWS QUALITY CONTROL AND MAY NOT
  REPORT WEATHER SUCH AS PRECIPITATION AND FOG.

KYZ079-080-083-085-087-088-110-112-115-119-120-050900
...EASTERN KENTUCKY...

CITY           SKY/WX    TMP DP  RH WIND       PRES   REMARKS
JACKSON        PTCLDY    42  38  85 NW3       29.72F
LONDON         CLEAR     43  39  86 W3        29.74F
SOMERSET*      CLEAR     43  43 100 W3        29.77F
MONTICELLO*    CLEAR     45  44  97 NW7       29.78F
WILLIAMSBURG*  SUNNY     43  43 100 CALM      29.75F
MIDDLESBORO*   CLOUDY    46  41  81 N5        29.74F
HARLAN APT*    CLOUDY    45  41  87 W7        29.73S
HAZARD APT*    CLOUDY    43  43 100 CALM      29.73F
BLACK MTN*       N/A     30  34 100 VRB6        N/A  WCI  24
PIKE CO APT*     N/A     42  42 100 W6        29.72S
BIG SANDY APT* CLOUDY    43  43  98 W3        29.72S
MOREHEAD APT*  CLOUDY    41  37  87 CALM      29.74F
$$

KYZ035-036-041-042-044-050-067-078-099-050900
...CENTRAL KENTUCKY...

CITY           SKY/WX    TMP DP  RH WIND       PRES   REMARKS
MT STERLING*   CLOUDY    41  39  93 CALM      29.74F
FLEMING/MASON* CLOUDY    42  38  89 SW3       29.73F
DANVILLE*      CLOUDY    45  37  76 W5        29.76F
RICHMOND*      MOCLDY    43  36  75 SW6       29.74F
LEXINGTON      CLOUDY    44  38  79 W6        29.73F
FRANKFORT      CLOUDY    47  38  71 W6        29.72F
LOUISVILLE     LGT RAIN  48  42  80 W9        29.76F
LEBANON*         N/A     45  41  87 CALM      29.76F
BOWLING GREEN  CLOUDY    49  42  77 SW5       29.80F
$$

KYZ091>093-OHZ055-061-077-WVZ005-015-034-035-042-050900
...SOUTHERN OHIO/WEST VIRGINIA...

CITY           SKY/WX    TMP DP  RH WIND       PRES   REMARKS
COVINGTON      LGT RAIN  42  39  89 NW5       29.71F
COLUMBUS       MOCLDY    40  36  86 N3        29.70S
DAYTON         CLOUDY    39  37  92 N7        29.73S WCI  34
WILMINGTON     CLOUDY    43  36  76 NW5       29.70F
HUNTINGTON     MOCLDY    45  42  89 CALM      29.71S
CHARLESTON     LGT RAIN  48  44  86 NW6       29.68F FOG
PINEVILLE*     LGT RAIN  47  43  87 MISG      29.72S
BECKLEY        LGT RAIN  43  41  93 NW6       29.65S
$$

VAZ002-007-008-TNZ017-027-036-066-071-050900
...SOUTHWEST VIRGINIA/EAST TENNESSEE...

CITY           SKY/WX    TMP DP  RH WIND       PRES   REMARKS
WISE*          CLOUDY    43  41  93 NW5       29.70F
BRISTOL        CLOUDY    46  43  89 W6        29.70F
MORRISTOWN*    PTSUNNY   46  45  93 CALM      29.71F
SEVIERVILLE*   CLOUDY    46  45  93 W3        29.73S
KNOXVILLE      CLOUDY    49  44  83 NW5       29.74S
OAK RIDGE      MOCLDY    47  44  90 CALM      29.76F
CROSSVILLE     CLEAR     43  40  89 NW6       29.77F
NASHVILLE      MOCLDY    48  40  73 CALM      29.82F
$$

...KEY TO REMARKS...
VSB - VISIBILITY IN MILES
WCI - WIND CHILL INDEX
HX  - HEAT INDEX

$$




USA.gov is the U.S. government's official web portal to all federal, state and local government web resources and services.